DELTA 1 DEB, 13530

Orbit data source: Space-Track

DELTA 1 DEB, 13530 is space debris in SSO originally from a launch on Thu, 29 Jul 1976 UTC launched from the Air Force Western Test Range (AFWTR). Debris objects in space refer to the collection of defunct objects orbiting the Earth. Examples of debris include non-operational satellites, rocket bodies, and fragments generated from explosions, collisions, or faulty payload assembly.

Loading next visibility...
Identifier
13530, 1976-077EC
Orbit
SSO
Country
Flag of USUS
Related business
Manufacturer
Unknown
Mission
Spacecraft
Bus & Motor
Unknown
Mass
Unknown
Launch date (UTC)
1976-07-29 (49 years ago)
Launch vehicle
Unknown
Launch site
Air Force Western Test Range (AFWTR)
Object type
Payload
Rocket body
Debris
Shape & HBR
Unknown shape, 0.1 m
Radar Cross Section
Small (<0.1 m²)

Expand to show TLE details & history
Last TLE update: 1 day ago

TLE from 1 day ago
0 DELTA 1 DEB
1 13530U 76077EC  25301.25046965  .00000613  00000-0  50122-2 0  9999
2 13530 102.3376  42.0665 0117438  66.0712 352.1004 12.36956371 33762
Epoch: 2025-10-28T06:00Z
TLE epoch observation values (Epoch: 2025-10-28T06:00:40.577Z)
Latitude
56.02152°
Longitude
-103.78343°
Altitude
1,436.773 km
Speed
7.19 km/s
True Right ascension
01h 32m 54s
True Declination
55° 52' 33"
Sunlit
Object was in full shadow at epoch
Visualization orbit readout
Latitude
Unknown
Longitude
Unknown
Altitude
Unknown
Speed
Unknown
Apparent Right ascension
Unknown
Apparent Declination
Unknown
Sunlit
N/A
Visualization observer readout
Local Sidereal Time
07:59:25
Azimuth
Unknown
Elevation
Unknown
Doppler factor
Unknown
Orbital elements
Apogee altitude
1,609.851 km
Perigee altitude
1,424.41 km
Semi-major axis
7,895.267 km
Eccentricity
0.01174
Inclination
102.3376°
RAAN
42.0665°
Arg. of periapsis
66.0712°
True anomaly
351.91272°
Mean anomaly
352.1004°
Eccentric anomaly
352.00683°
Mean motion
3.0938 °/min
Orbital period
116.36 mins
BSTAR
0.0050122
Loading maneuver chart data...
Computing Atmospheric mass density...
Loading historical data...
Loading historical data...
Loading historical data...
Loading historical data...
Loading historical data...
Loading historical data...
Loading historical data...

Documentation

Showing up to 5 results
|